TimePDT,TemperatureF,Dew PointF,Humidity,Sea Level PressureIn,VisibilityMPH,Wind Direction,Wind SpeedMPH,Gust SpeedMPH,PrecipitationIn,Events,Conditions,WindDirDegrees,DateUTC
12:53 AM,61.0,55.0,81,29.94,10.0,WSW,3.5,-,N/A,,Scattered Clouds,250,2012-10-11 07:53:00
1:53 AM,60.1,55.0,83,29.93,10.0,Calm,Calm,-,N/A,,Partly Cloudy,0,2012-10-11 08:53:00
2:53 AM,57.0,54.0,89,29.91,10.0,ESE,3.5,-,N/A,,Clear,110,2012-10-11 09:53:00
3:53 AM,57.0,54.0,89,29.91,10.0,Calm,Calm,-,N/A,,Clear,0,2012-10-11 10:53:00
4:53 AM,55.9,54.0,93,29.91,10.0,SE,3.5,-,N/A,,Clear,140,2012-10-11 11:53:00
5:39 AM,57.2,53.6,88,29.92,10.0,SE,3.5,-,N/A,,Mostly Cloudy,140,2012-10-11 12:39:00
5:53 AM,57.0,54.0,89,29.92,10.0,SE,3.5,-,N/A,,Overcast,130,2012-10-11 12:53:00
6:17 AM,55.4,53.6,94,29.93,10.0,SSE,3.5,-,N/A,,Scattered Clouds,150,2012-10-11 13:17:00
6:53 AM,53.1,51.1,93,29.92,7.0,SE,4.6,-,N/A,,Clear,130,2012-10-11 13:53:00
7:53 AM,61.0,55.0,81,29.93,10.0,SE,8.1,-,N/A,,Clear,140,2012-10-11 14:53:00
8:53 AM,64.0,54.0,70,29.94,10.0,SE,5.8,-,N/A,,Mostly Cloudy,140,2012-10-11 15:53:00
9:53 AM,64.9,54.0,68,29.94,10.0,SSW,9.2,-,N/A,,Scattered Clouds,200,2012-10-11 16:53:00
10:53 AM,66.0,53.1,63,29.94,10.0,SSW,8.1,-,N/A,,Mostly Cloudy,200,2012-10-11 17:53:00
11:14 AM,68.0,51.8,56,29.94,10.0,SSW,11.5,-,N/A,,Overcast,200,2012-10-11 18:14:00
11:39 AM,69.8,53.6,56,29.95,10.0,WSW,13.8,-,N/A,,Mostly Cloudy,240,2012-10-11 18:39:00
11:53 AM,68.0,52.0,56,29.94,10.0,WSW,15.0,19.6,N/A,,Scattered Clouds,240,2012-10-11 18:53:00
12:53 PM,71.6,51.8,50,29.93,10.0,SW,11.5,20.7,N/A,,Partly Cloudy,230,2012-10-11 19:53:00
12:55 PM,69.8,51.8,53,29.93,10.0,SW,10.4,20.7,N/A,,Partly Cloudy,230,2012-10-11 19:55:00
1:53 PM,68.0,51.1,55,29.91,10.0,WSW,12.7,19.6,N/A,,Mostly Cloudy,240,2012-10-11 20:53:00
2:53 PM,64.9,54.0,68,29.92,10.0,West,12.7,-,0.00,,Overcast,260,2012-10-11 21:53:00
3:14 PM,66.2,53.6,64,29.92,10.0,SW,11.5,-,0.00,Rain,Light Rain,220,2012-10-11 22:14:00
3:22 PM,66.2,53.6,64,29.92,10.0,WSW,11.5,21.9,0.00,,Scattered Clouds,250,2012-10-11 22:22:00
3:53 PM,66.9,53.1,61,29.92,10.0,West,9.2,18.4,0.00,,Scattered Clouds,280,2012-10-11 22:53:00
4:53 PM,64.9,51.1,61,29.91,10.0,WSW,11.5,-,N/A,,Scattered Clouds,250,2012-10-11 23:53:00
5:53 PM,64.0,52.0,65,29.92,10.0,WSW,8.1,-,N/A,,Mostly Cloudy,250,2012-10-12 00:53:00
6:53 PM,62.1,52.0,70,29.94,10.0,West,5.8,-,N/A,,Clear,260,2012-10-12 01:53:00
7:53 PM,61.0,52.0,72,29.94,10.0,West,3.5,-,N/A,,Clear,270,2012-10-12 02:53:00
8:53 PM,61.0,52.0,72,29.96,10.0,Calm,Calm,-,N/A,,Mostly Cloudy,0,2012-10-12 03:53:00
9:53 PM,59.0,55.0,87,29.97,10.0,WSW,3.5,-,0.08,,Mostly Cloudy,240,2012-10-12 04:53:00
10:22 PM,59.0,55.4,88,29.98,10.0,Calm,Calm,-,N/A,,Mostly Cloudy,0,2012-10-12 05:22:00
10:53 PM,61.0,54.0,78,29.98,10.0,Calm,Calm,-,N/A,,Mostly Cloudy,0,2012-10-12 05:53:00
11:07 PM,60.8,55.4,82,29.99,10.0,Calm,Calm,-,N/A,,Mostly Cloudy,0,2012-10-12 06:07:00
11:53 PM,59.0,55.0,87,29.98,10.0,Calm,Calm,-,0.02,Rain,Light Rain,0,2012-10-12 06:53:00